Vorticity
-0 4 9 8 7 7 4 5 6 5 4 5 5 6 7 7 8 6 3 6 11 17 16 15 13 11 9 6 5 4 1 2 4 3 5 6 11 14
11 19 -0 1 3 7 7 6 4 5 12 11 9 5 4 -5 -2 4 7 12 14 14 13 8 8 6 4 2 3 5 5 6 4 5 8 6 10 18
-2 -5 0 -4 8 8 -2 -1 4 3 -5 -9 12 17 27 15 14 10 16 14 10 6 5 4 4 5 6 7 7 11 5 5 3 9 10 13 24 16
8 19 20 21 23 23 25 38 38 37 31 22 14 13 11 13 17 16 11 9 6 6 7 7 9 9 8 6 7 9 13 19 28 26 29 25 16 15
16 17 17 15 13 12 12 13 14 16 16 16 15 17 19 17 14 10 7 9 11 8 8 8 9 18 25 27 27 29 30 26 26 23 18 19 18 16
13 13 15 14 14 13 13 13 16 18 19 17 14 8 7 7 7 9 10 11 14 19 22 23 21 20 19 18 18 17 19 25 22 18 14 12 11 10
11 12 10 6 13 15 15 12 10 11 9 9 9 8 10 12 12 14 20 20 18 17 17 17 18 16 14 15 19 20 17 11 12 9 7 6 6 5
14 3 -3 18 17 14 11 10 9 12 10 9 12 12 12 15 18 17 15 13 16 16 14 15 12 14 16 16 13 11 13 12 10 9 9 10 11 11
2 9 6 19 13 13 13 10 8 10 11 10 11 14 16 15 14 13 12 12 11 11 10 12 12 10 10 11 10 8 7 6 7 7 7 9 10 11
5 6 12 18 10 10 8 8 8 9 10 13 15 16 15 14 14 12 11 12 12 12 12 12 11 10 10 10 10 11 11 10 9 10 10 9 10 13
4 3 27 11 9 8 7 7 9 11 14 15 15 13 14 12 12 13 12 11 11 11 11 10 10 10 10 10 9 8 10 12 12 13 15 16 15 12
9 15 16 10 9 7 6 8 12 13 15 13 15 13 14 10 8 8 8 7 7 10 11 11 11 11 11 12 11 11 12 12 12 11 9 8 7 7
12 23 10 10 7 6 8 10 15 16 12 16 9 9 8 6 8 9 10 12 12 8 9 13 15 15 14 12 11 11 10 9 9 8 7 7 7 6
26 8 11 7 6 6 9 15 14 15 16 11 6 10 10 8 10 11 13 11 9 14 14 10 10 10 9 9 9 10 10 11 11 11 11 10 9 8
14 9 9 6 5 7 11 16 11 13 14 9 9 10 9 9 12 12 13 15 10 10 10 7 7 11 12 10 11 12 11 10 11 13 14 17 13 9
8 10 8 6 6 7 12 16 13 11 12 11 10 7 12 11 12 15 9 10 9 5 6 11 12 11 11 8 7 8 9 11 13 16 20 27 32 27
6 7 6 6 7 7 11 14 12 11 11 10 10 9 10 13 13 9 10 5 8 9 16 13 11 9 9 8 7 8 10 12 15 16 19 18 39 45
6 7 5 7 7 7 11 13 15 13 8 7 7 9 15 11 8 9 3 -1 10 19 11 10 8 5 6 11 14 14 14 13 13 12 10 11 8 19
4 7 4 8 6 8 10 13 15 14 10 9 8 15 11 8 9 3 7 9 18 10 9 5 6 15 16 14 12 11 10 10 10 10 10 8 8 9
5 4 7 6 6 8 9 12 14 14 11 8 16 11 8 10 6 4 0 12 16 7 4 12 15 11 10 10 9 11 11 9 9 9 10 11 11 9
6 4 6 5 7 7 10 11 15 13 10 16 11 9 8 5 -2 14 19 23 6 7 14 10 10 9 7 5 3 3 3 2 5 7 9 9 8 8
5 8 2 5 8 8 11 11 15 12 16 10 10 5 4 19 19 26 11 7 12 10 9 9 4 4 3 2 4 5 6 6 5 6 8 6 5 11
9 15 8 6 9 9 10 11 15 15 9 12 5 6 23 10 13 11 13 10 9 9 3 3 4 4 5 6 4 5 6 7 7 10 11 12 11 10
Height
5668 5669 5672 5673 5675 5676 5678 5680 5681 5682 5682 5681 5681 5681 5682 5682 5683 5683 5682 5682 5681 5679 5677 5676 5675 5674 5673 5672 5672 5673 5672 5672 5672 5671 5672 5671 5671 5670
5655 5658 5660 5661 5663 5665 5666 5666 5668 5669 5671 5670 5669 5669 5669 5668 5668 5668 5667 5667 5666 5665 5663 5662 5662 5661 5660 5659 5658 5658 5657 5657 5657 5657 5655 5655 5654 5654
5645 5646 5648 5650 5651 5652 5653 5653 5655 5656 5658 5657 5657 5656 5655 5655 5654 5654 5653 5651 5651 5650 5648 5648 5647 5646 5645 5644 5644 5643 5642 5642 5641 5640 5639 5639 5639 5638
5633 5635 5636 5637 5638 5638 5639 5640 5641 5642 5643 5644 5642 5642 5641 5641 5640 5639 5638 5638 5637 5636 5634 5634 5633 5631 5630 5629 5627 5625 5624 5624 5623 5623 5623 5624 5624 5623
5624 5625 5625 5625 5626 5627 5627 5627 5628 5628 5629 5630 5629 5629 5629 5629 5629 5628 5627 5626 5624 5622 5620 5618 5617 5615 5614 5612 5610 5609 5608 5608 5608 5608 5608 5610 5610 5611
5615 5615 5616 5616 5616 5616 5616 5616 5617 5617 5618 5618 5617 5617 5617 5617 5617 5616 5615 5613 5610 5608 5607 5605 5604 5602 5601 5600 5599 5597 5597 5597 5597 5597 5597 5598 5598 5599
5607 5607 5607 5607 5606 5607 5607 5607 5608 5608 5608 5607 5607 5606 5606 5605 5604 5602 5602 5599 5598 5597 5595 5594 5593 5592 5591 5590 5590 5589 5588 5588 5587 5587 5588 5588 5587 5587
5599 5599 5598 5598 5597 5597 5597 5598 5599 5598 5598 5597 5596 5595 5595 5593 5592 5591 5590 5589 5588 5586 5586 5585 5584 5583 5582 5582 5581 5581 5580 5579 5579 5578 5578 5577 5576 5576
5592 5591 5591 5589 5589 5590 5590 5590 5590 5589 5588 5587 5585 5585 5584 5584 5583 5582 5580 5579 5578 5578 5578 5577 5577 5576 5575 5573 5573 5572 5571 5570 5569 5568 5567 5566 5566 5565
5584 5584 5583 5582 5582 5582 5582 5582 5581 5580 5578 5577 5577 5576 5576 5575 5574 5573 5572 5572 5571 5571 5570 5570 5569 5568 5567 5566 5564 5563 5562 5560 5559 5558 5557 5556 5555 5554
5576 5576 5575 5576 5576 5575 5575 5574 5572 5571 5570 5569 5569 5568 5568 5567 5567 5566 5565 5565 5564 5563 5562 5562 5560 5559 5558 5556 5555 5553 5551 5550 5548 5547 5545 5544 5543 5542
5568 5568 5568 5569 5568 5568 5567 5565 5564 5563 5563 5562 5562 5562 5562 5561 5560 5559 5559 5558 5557 5556 5554 5554 5552 5551 5549 5547 5545 5543 5541 5540 5538 5537 5536 5534 5533 5532
5560 5560 5561 5561 5561 5560 5559 5558 5557 5556 5556 5556 5556 5556 5556 5555 5554 5552 5551 5551 5550 5549 5548 5546 5544 5542 5540 5539 5536 5534 5532 5530 5528 5526 5525 5523 5521 5519
5553 5553 5554 5554 5554 5553 5552 5551 5551 5550 5550 5550 5550 5550 5549 5548 5546 5545 5545 5544 5543 5542 5541 5539 5537 5534 5532 5530 5528 5525 5523 5520 5517 5514 5512 5510 5507 5505
5545 5547 5547 5547 5547 5546 5545 5544 5544 5544 5544 5544 5544 5544 5543 5541 5540 5539 5538 5537 5536 5535 5533 5531 5528 5526 5523 5521 5518 5515 5511 5509 5505 5501 5498 5494 5491 5489
5539 5540 5541 5541 5541 5540 5539 5539 5539 5538 5538 5538 5538 5537 5536 5535 5534 5533 5532 5531 5529 5528 5525 5523 5520 5517 5515 5511 5508 5504 5501 5497 5493 5488 5484 5479 5474 5471
5532 5534 5535 5536 5535 5535 5534 5533 5532 5532 5532 5531 5531 5530 5530 5529 5528 5527 5525 5524 5522 5520 5518 5515 5512 5509 5505 5502 5498 5494 5490 5486 5481 5476 5471 5467 5461 5456
5526 5528 5529 5530 5530 5529 5528 5527 5526 5525 5525 5525 5525 5525 5524 5523 5522 5521 5520 5518 5516 5513 5510 5507 5504 5500 5497 5493 5489 5484 5480 5475 5471 5466 5462 5457 5453 5452
5519 5522 5522 5523 5523 5522 5521 5520 5519 5519 5519 5519 5519 5518 5518 5517 5516 5515 5513 5511 5508 5506 5503 5500 5496 5492 5488 5484 5480 5475 5470 5467 5462 5457 5453 5449 5444 5441
5512 5515 5516 5516 5516 5516 5515 5514 5514 5513 5513 5513 5513 5512 5512 5511 5510 5508 5506 5504 5501 5498 5495 5492 5488 5485 5481 5477 5471 5469 5464 5457 5453 5448 5443 5438 5434 5430
5505 5507 5509 5510 5510 5509 5509 5508 5508 5507 5507 5507 5507 5507 5506 5504 5502 5500 5498 5496 5494 5491 5488 5485 5482 5478 5474 5469 5464 5459 5454 5450 5444 5439 5433 5427 5421 5415
5497 5499 5501 5502 5503 5503 5503 5502 5502 5501 5501 5501 5501 5501 5499 5497 5494 5492 5491 5489 5487 5485 5482 5479 5475 5470 5466 5460 5454 5448 5442 5435 5430 5425 5420 5415 5409 5402
5489 5491 5494 5495 5496 5497 5497 5496 5496 5496 5496 5496 5495 5495 5493 5491 5489 5487 5485 5484 5482 5480 5476 5472 5467 5462 5456 5450 5444 5436 5429 5422 5414 5405 5398 5393 5388 5383